Theta_e
313 321 330 331 329 329 331 331 330 330 326 321 318 316 316 314 313 312 309 307 306 305 305 305 304 304 304 304 303 301 301 300 302 305 305 303 302 301 301 300 300 300 299
316 314 313 321 330 329 328 330 330 329 325 320 318 317 314 313 312 310 308 306 305 304 304 304 304 304 303 302 301 300 300 300 302 305 304 301 300 300 299 299 298 298 298
319 319 317 315 326 329 328 328 328 327 323 319 317 315 313 311 311 309 307 306 304 304 303 303 303 302 302 301 300 299 299 299 303 304 304 301 300 298 297 297 297 297 296
319 318 316 318 324 326 326 326 326 324 319 317 316 315 315 313 310 309 306 305 304 302 302 302 302 302 301 300 299 297 297 297 298 303 304 304 302 300 295 296 296 294 294
318 318 318 319 321 322 321 320 320 317 317 317 315 314 312 311 309 307 306 303 302 302 301 301 301 300 299 298 297 296 296 296 296 297 301 303 303 301 298 293 293 293 293
319 319 318 318 319 319 318 317 317 315 313 312 312 312 313 311 309 307 305 302 302 301 300 299 299 299 298 297 296 295 295 294 294 294 298 302 301 301 301 297 294 294 291
317 317 317 317 316 317 317 316 314 314 312 310 313 314 312 310 308 309 308 305 302 300 299 299 298 297 296 295 294 294 293 293 293 293 293 294 296 299 301 301 296 293 291
316 317 317 316 316 316 315 315 313 311 310 310 311 314 311 309 310 309 309 305 303 301 299 298 297 296 295 294 293 293 293 292 292 291 292 293 295 299 300 300 299 293 291
316 317 317 317 317 318 317 312 311 311 313 312 312 313 312 311 311 310 308 306 304 303 299 297 296 295 294 293 292 292 291 291 291 290 290 292 294 296 298 298 298 297 292
310 315 316 317 316 314 312 312 314 314 314 313 313 312 310 311 310 309 307 306 305 304 300 298 296 294 293 292 291 291 290 291 291 291 290 290 290 290 294 295 295 295 293
309 309 309 310 315 315 314 314 314 314 313 314 313 312 311 310 309 308 308 307 305 303 300 298 297 294 293 291 291 291 290 291 291 291 290 290 290 292 292 292 293 293 293
307 308 309 309 309 313 315 313 314 313 313 312 313 312 310 309 308 307 307 305 305 305 301 298 297 293 291 290 290 290 291 290 290 290 290 290 290 290 292 293 293 293 293
308 308 308 308 309 310 314 313 313 313 312 312 312 311 311 310 309 308 307 306 304 303 301 300 296 294 291 290 290 290 290 290 289 290 290 290 289 289 289 289 289 289 289
308 308 308 308 308 308 309 312 313 313 313 312 311 311 311 310 309 308 307 306 306 303 299 299 297 293 291 290 290 290 290 290 289 289 289 290 289 289 289 289 289 289 289
308 307 306 306 305 306 307 308 308 310 311 311 311 311 311 310 309 307 306 305 304 303 297 299 296 293 290 290 290 290 289 290 290 289 289 289 289 289 289 289 289 289 289
306 305 304 305 306 307 307 306 306 307 308 309 310 310 310 309 309 307 305 304 302 300 299 301 300 296 290 289 289 289 289 289 289 289 289 288 289 288 288 288 288 288 288
304 304 305 306 308 308 307 307 308 308 308 308 308 309 308 309 308 306 305 304 302 299 299 300 298 292 289 289 289 289 289 289 289 289 288 287 287 287 287 287 287 287 287
304 305 306 307 307 308 308 307 307 307 308 308 307 307 307 308 307 306 304 303 300 299 299 298 297 291 289 289 289 289 288 288 288 287 286 285 285 285 286 286 286 286 286
305 305 305 304 304 306 308 307 306 307 308 308 306 306 307 307 307 305 303 301 300 298 297 297 293 290 289 289 291 288 288 288 287 287 286 285 285 285 285 285 285 285 285
305 305 304 303 304 305 308 307 306 307 307 307 306 306 306 306 305 304 303 302 300 299 297 293 291 290 289 290 289 288 288 288 287 286 285 285 284 284 284 284 284 284 284
304 304 305 307 308 307 308 306 305 306 307 306 306 305 305 305 304 303 302 300 300 297 296 294 291 290 291 291 288 288 287 287 287 286 285 284 284 284 284 284 284 283 283
303 304 306 306 307 308 307 305 304 305 306 305 304 304 303 303 302 301 300 299 299 297 295 293 292 291 291 290 288 289 287 287 286 286 285 284 283 283 283 283 283 283 284
303 305 305 305 304 306 306 305 303 303 304 304 303 302 302 301 301 300 299 299 298 296 295 294 292 291 291 290 289 289 287 286 286 285 283 282 282 282 283 282 282 283 283
303 305 305 305 304 306 305 304 304 303 303 303 302 301 300 299 299 299 299 298 297 296 294 293 292 291 291 290 289 289 287 287 284 283 282 282 283 283 283 283 283 283 282
302 305 304 305 305 303 302 303 303 303 302 302 302 301 300 300 300 300 300 299 297 297 296 294 293 292 291 290 290 288 287 285 283 282 282 282 283 284 284 283 283 283 283
303 304 304 303 305 306 304 303 302 302 301 301 302 301 300 300 299 299 299 298 297 296 295 294 293 292 291 290 290 286 285 284 285 283 282 282 282 283 283 283 283 283 282
Wind_Speed
24 27 32 37 38 39 38 40 40 40 38 36 34 32 30 27 23 19 18 17 16 16 14 12 11 9 9 9 9 10 11 13 15 18 20 14 10 8 7 5 3 3 4
19 20 24 33 42 43 42 42 43 42 40 36 36 33 30 26 21 19 18 16 14 13 13 12 11 10 9 8 9 10 12 14 18 21 19 14 12 11 9 7 5 2 4
23 22 18 28 38 44 45 45 45 43 42 38 36 32 28 24 22 20 17 15 15 14 14 13 12 10 9 9 9 11 12 14 21 22 14 10 8 18 12 10 6 2 3
24 21 12 18 34 37 41 43 43 44 40 35 33 30 28 26 22 17 15 16 16 15 15 14 12 12 11 10 11 11 14 16 19 23 24 12 11 12 11 13 9 5 1
20 17 8 9 19 25 29 33 38 39 38 34 32 30 23 19 17 17 16 18 16 15 15 14 13 12 11 9 10 10 12 13 15 20 28 20 13 17 14 18 16 10 4
19 15 9 6 10 16 22 26 31 35 28 19 17 18 18 15 17 17 17 17 16 17 18 15 13 12 10 9 9 9 10 11 13 16 21 25 22 20 18 15 21 13 7
11 11 8 4 5 11 17 22 17 4 2 8 24 18 19 15 17 19 16 18 16 16 15 13 12 11 9 8 7 7 8 7 10 13 15 16 17 19 21 19 25 18 11
7 7 5 3 3 8 15 15 8 13 11 1 11 22 22 21 21 20 15 16 14 13 16 14 12 10 7 6 7 6 5 6 6 8 10 11 13 16 19 18 21 18 10
7 4 1 3 8 11 16 9 6 7 18 17 17 24 23 24 24 21 18 18 17 16 15 13 12 10 9 7 6 6 5 5 5 6 6 7 12 17 18 15 17 13 11
18 12 9 11 11 15 14 15 17 19 24 25 27 31 29 26 21 25 23 20 18 17 15 15 13 9 8 6 7 7 7 6 5 5 6 8 10 13 17 19 20 14 8
24 30 28 25 27 28 26 22 20 21 25 32 32 29 30 29 29 28 23 21 20 17 15 14 9 8 7 10 9 9 9 6 7 7 7 8 9 10 12 17 18 15 11
31 28 26 26 25 30 32 25 22 24 28 25 29 34 33 35 30 28 27 24 20 17 16 13 8 11 11 11 9 12 9 9 8 9 9 9 10 11 13 13 15 15 14
31 23 28 22 21 29 31 32 29 28 26 28 30 33 33 31 29 29 25 22 21 19 16 13 14 13 15 11 12 12 10 10 10 10 11 10 10 11 11 11 12 11 10
22 20 26 26 29 26 26 28 34 34 33 34 33 30 32 29 27 28 26 24 18 20 19 16 14 14 14 14 15 14 12 12 12 12 12 11 11 10 10 10 11 10 10
11 12 14 16 17 19 19 20 26 33 37 39 36 36 35 27 29 28 28 25 23 22 23 17 16 16 17 16 17 16 13 13 12 13 13 13 12 12 10 10 11 12 11
10 13 17 18 21 24 27 26 24 23 23 32 36 38 37 30 22 32 28 25 24 25 25 23 24 22 21 19 17 16 14 14 13 13 13 14 13 13 13 11 11 12 11
12 15 17 16 18 20 19 20 20 20 24 24 29 35 37 35 36 31 30 27 27 28 25 20 19 17 22 20 18 16 14 15 13 13 13 13 14 13 13 12 12 12 11
12 14 15 17 19 18 18 19 19 15 15 17 21 26 31 34 33 34 33 30 30 28 24 22 19 20 23 19 18 17 14 16 14 13 13 14 13 13 13 12 12 12 11
14 15 17 22 23 21 15 16 14 12 13 14 15 19 23 28 30 36 36 34 31 28 24 21 19 25 23 22 20 18 17 17 16 15 16 16 15 14 14 13 13 12 11
16 17 22 25 24 19 14 13 12 8 8 9 11 14 18 24 28 31 34 35 28 28 23 21 23 24 25 22 22 17 19 19 18 17 17 17 16 16 15 14 13 13 12
16 17 21 19 18 13 11 10 9 4 3 3 5 10 14 18 21 25 28 30 25 25 25 24 26 28 27 24 20 20 22 20 19 18 18 17 17 16 15 15 14 14 14
16 17 17 16 17 11 8 6 5 3 3 3 4 8 12 15 16 17 21 25 22 23 23 23 25 26 24 27 24 22 20 19 19 18 16 15 16 16 16 16 16 17 15
15 16 17 21 21 11 6 4 4 4 4 5 6 7 10 12 13 15 18 23 23 21 22 24 25 26 26 24 25 21 21 22 22 18 15 16 17 17 17 17 18 18 16
16 14 16 19 19 9 3 5 5 5 6 8 8 9 10 10 12 13 16 19 20 19 22 24 26 26 27 26 27 26 24 24 22 20 20 20 19 18 18 19 20 18 17
16 13 14 15 12 12 10 4 6 7 7 10 11 11 12 13 14 13 13 12 14 17 18 20 22 23 27 28 27 26 25 23 21 21 22 23 23 23 22 21 21 19 18
15 13 12 14 11 10 4 4 6 10 8 11 16 15 16 16 15 15 15 16 15 15 15 16 16 14 17 21 23 21 20 18 17 21 23 24 24 23 21 21 21 21 20
Wind_Direction
305 280 263 251 244 239 232 224 220 218 214 213 215 215 215 218 222 226 228 226 219 213 212 212 215 218 216 213 204 199 191 182 182 177 157 153 158 159 144 128 104 83 36
313 286 272 260 247 243 235 228 223 220 217 214 216 218 216 218 222 225 222 224 223 216 210 205 204 205 206 205 201 197 190 187 186 182 172 144 152 162 154 151 144 92 29
331 323 291 260 250 240 234 228 223 218 214 214 215 214 215 218 218 222 221 222 221 218 211 204 200 200 197 202 205 202 197 200 191 196 184 161 177 164 162 165 156 129 19
343 339 319 258 242 237 237 230 222 215 212 213 219 221 226 224 228 230 229 222 214 215 216 205 197 194 200 201 209 209 206 204 210 208 210 210 203 175 163 176 177 166 89
4 4 352 248 234 229 225 221 217 208 209 212 217 218 223 229 238 228 226 223 213 214 218 214 203 201 198 199 208 211 220 221 217 223 220 221 218 204 180 176 174 174 145
1 359 346 292 242 226 223 216 213 205 205 217 223 242 224 232 243 244 227 227 221 217 213 216 211 204 196 200 210 218 227 229 229 227 225 231 230 213 209 183 178 182 152
8 359 345 313 250 233 228 214 191 159 206 270 272 253 244 228 226 236 239 236 222 226 224 219 217 210 200 198 208 215 222 224 228 234 233 229 229 233 226 216 183 175 161
10 9 1 320 242 212 187 137 31 343 318 174 240 248 240 227 224 233 248 240 231 237 231 225 218 213 213 207 211 218 217 206 209 222 222 217 219 216 221 214 195 169 168
343 338 314 198 172 157 183 264 292 276 245 223 212 224 220 231 233 232 234 227 226 231 230 225 221 205 210 205 202 199 194 180 172 187 191 192 203 209 209 214 210 208 174
337 287 280 259 245 254 254 241 250 234 238 233 228 229 229 227 221 229 231 227 228 235 230 233 218 210 211 215 199 189 184 167 170 174 181 181 189 195 203 206 206 209 209
310 314 291 289 265 254 248 250 253 239 234 231 231 228 230 230 228 223 222 221 226 230 230 234 225 220 222 217 202 190 193 176 188 182 180 182 174 173 178 184 197 204 214
288 285 290 289 289 272 254 260 259 250 236 233 234 230 227 225 223 226 229 217 224 226 229 229 235 230 220 216 216 212 182 191 186 184 184 185 178 175 181 187 202 218 231
266 271 275 285 284 278 266 261 256 260 253 241 237 235 231 231 229 227 225 227 228 229 227 231 231 227 217 220 213 217 192 187 187 191 191 191 188 182 183 188 196 200 193
269 272 267 271 285 294 283 272 265 263 255 251 245 246 242 235 234 231 226 223 227 233 223 220 231 229 222 210 217 216 203 192 193 198 199 197 196 193 193 192 192 194 192
259 271 287 295 300 300 296 285 273 265 261 257 253 247 246 239 239 234 230 226 218 225 219 221 221 224 219 216 217 216 213 203 199 206 210 207 205 205 203 203 201 201 201
274 299 301 301 305 306 302 294 283 279 268 257 255 252 247 236 248 240 229 230 222 217 218 234 223 216 217 215 214 217 215 214 207 210 218 219 213 211 209 208 206 204 208
300 306 303 299 312 319 315 312 307 295 272 260 252 251 242 234 236 231 227 229 225 222 233 225 222 205 218 213 212 213 213 230 215 216 218 220 215 210 208 207 206 208 211
296 307 306 304 306 306 302 297 298 291 297 267 254 251 242 236 235 231 226 221 221 226 232 227 216 201 215 213 216 219 214 226 217 216 213 214 214 212 209 208 209 209 212
283 294 303 306 301 296 301 298 302 295 289 262 249 243 236 233 234 231 227 220 220 220 229 224 201 210 212 212 218 215 215 221 215 215 214 216 214 212 212 210 210 211 212
286 302 306 301 298 289 290 302 307 304 304 281 256 250 243 238 236 235 229 230 223 223 224 209 210 214 219 227 214 212 223 223 219 216 216 217 216 215 213 213 215 218 218
292 307 312 309 312 294 286 307 314 325 292 264 240 238 235 237 238 236 231 223 223 222 222 216 213 217 222 211 209 220 224 226 227 225 225 224 225 223 219 218 219 221 222
295 314 325 335 323 301 280 312 323 287 255 241 233 234 233 232 235 238 230 223 228 227 222 220 221 226 227 210 214 225 224 228 233 233 232 229 229 228 225 222 222 228 228
290 309 312 322 336 285 274 270 289 285 250 234 223 231 232 232 231 228 221 220 223 224 224 224 226 224 224 219 225 224 230 233 234 233 231 224 225 227 225 221 223 228 232
290 301 305 310 336 289 297 254 269 305 256 229 225 212 219 228 224 219 224 227 224 226 227 226 227 229 223 221 222 220 229 228 226 224 225 222 223 228 229 228 228 231 235
286 288 299 300 296 9 10 309 289 298 280 231 221 218 220 224 229 233 239 238 236 241 240 237 234 236 228 227 223 223 233 227 225 225 224 224 230 233 234 235 237 238 241
280 276 289 293 288 274 245 272 304 316 282 238 226 224 224 229 229 232 235 232 236 247 244 242 246 256 243 230 219 228 226 221 220 226 230 233 236 239 241 242 242 244 247